sat.trackr.live / text

‹ back to catalog

STARLING 2

NORAD 57387 · 2023-100B

PAYLOAD ACTIVE UNKNOWN

§ Identity

Operator
Country
US
Launch date
2023-07-18
Launch site
RLLB
Launch vehicle
Mass (kg)
RCS (m²)

External: N2YO · Heavens-Above · Gunter

§ Orbital elements

Epoch: 2026-05-25T04:55:07.456224Z

Period
95.58 min
Inclination
99.5098°
Eccentricity
0.0005218
Mean motion
15.06576815 rev/d
Perigee alt
543.1 km
Apogee alt
550.3 km
Semi-major
6,924.8 km
B*
1.0334e-4
RAAN
157.6033°
Arg perigee
184.8006°
Mean anomaly
175.3166°
Rev number
15,644

§ Raw data

STARLING 21 57387U 23100B   26145.20494741  .00001440  00000+0  10334-3 0  99972 57387  99.5098 157.6033 0005218 184.8006 175.3166 15.06576815156443

JSON: /api/v1/satellites/57387 · /tle

For live sub-satellite position, see the globe view (requires WebGL).

§ Visibility from observer

Set your observer location to see the next 7 days of passes ≥ 10°. The values pass through the URL so the page stays shareable.

No JS? Fill the form by hand. The geolocation button needs JavaScript.